Overview Statistics Trail Chart Weather Telemetry Raw packets
 

This is the latest recevied weather packets stored in our database for station/object N1YZ. If no packets are shown the sender has not sent any weather packets the latest 10 day(s).

<< 26 27 28 29 30 31 32 >>
Time Temp. Humidity Pressure Rain* Wind** Luminosity Snow
1788478332 31.67° C 66% 1034.1 hPa 0 mm - 17 W/m² -
1788478030 31.67° C 67% 1034.1 hPa 0 mm - 18 W/m² -
1788477727 31.67° C 68% 1033.8 hPa 0 mm - 20 W/m² -
1788477425 31.67° C 66% 1033.9 hPa 0 mm - 19 W/m² -
1788477121 32.78° C 64% 1033.8 hPa 0 mm - 21 W/m² -
1788476816 32.78° C 62% 1033.7 hPa 0 mm - 23 W/m² -
1788476516 33.33° C 60% 1033.9 hPa 0 mm - 26 W/m² -
1788476212 33.33° C 59% 1033.7 hPa 0 mm - 31 W/m² -
1788475909 33.33° C 59% 1033.7 hPa 0 mm - 38 W/m² -
1788475604 33.89° C 59% 1033.7 hPa 0 mm - 42 W/m² -
1788475301 33.89° C 59% 1033.6 hPa 0 mm - 40 W/m² -
1788474996 33.33° C 59% 1033.6 hPa 0 mm - 37 W/m² -
1788474693 33.33° C 60% 1033.8 hPa 0 mm - 37 W/m² -
1788474384 33.33° C 60% 1033.7 hPa 0 mm - 38 W/m² -
1788474082 33.33° C 59% 1033.7 hPa 0 mm - 43 W/m² -
1788473778 33.33° C 58% 1033.7 hPa 0 mm - 48 W/m² -
1788473476 33.33° C 58% 1033.5 hPa 0 mm - 52 W/m² -
1788473175 33.89° C 57% 1033.5 hPa 0 mm - 58 W/m² -
1788472875 33.89° C 55% 1033.3 hPa 0 mm - 61 W/m² -
1788472574 33.89° C 54% 1033.4 hPa 0 mm - 61 W/m² -
1788472269 33.89° C 54% 1033.2 hPa 0 mm - 64 W/m² -
1788471968 33.89° C 58% 1033.2 hPa 0 mm - 72 W/m² -
1788471663 33.89° C 57% 1033.2 hPa 0 mm - 79 W/m² -
1788471358 33.89° C 56% 1033.3 hPa 0 mm - 76 W/m² -
1788471054 34.44° C 57% 1033.3 hPa 0 mm - 67 W/m² -

* Rain latest hour (hover to see other rain measurements)
** Current wind speed in m/s (hover to see current wind gust speed)